Vorticity
6 6 4 4 5 3 4 1 2 3 4 4 4 7 4 4 6 5 6 3 8 2 10 8 6 8 9 13 12 8 5 4 6 6 5 4 5 8 12 10 9 8 7 8 8 7 8 8 4
6 6 7 4 4 4 5 2 3 4 3 4 6 10 3 12 8 4 5 5 6 7 8 9 9 9 10 12 10 6 5 3 7 6 6 10 9 6 6 7 9 12 12 8 5 11 4 5 2
7 5 5 5 5 9 3 4 4 4 5 6 5 2 -2 15 4 6 15 7 2 2 9 6 11 13 14 10 7 6 7 10 5 1 5 5 7 10 9 5 9 2 6 9 8 7 9 5 4
8 4 5 6 8 7 4 3 3 3 4 6 3 4 3 7 9 9 7 3 5 4 14 10 5 15 13 13 12 10 8 6 5 4 8 10 11 -2 15 8 10 5 5 10 1 7 11 4 4
6 7 5 10 10 7 3 3 3 2 4 5 3 5 6 7 10 9 7 4 4 2 10 11 7 8 13 2 2 8 12 12 11 11 12 19 15 1 -0 20 2 14 -13 14 15 11 11 0 3
6 7 8 10 5 5 5 6 5 4 4 2 5 5 4 14 7 10 9 1 7 -0 8 10 11 6 8 10 9 6 8 7 6 11 11 9 42 -11 -2 11 -9 4 38 1 11 10 12 3 5
8 5 8 6 9 4 5 1 3 5 5 5 4 6 5 10 10 8 10 3 3 -2 7 8 12 11 7 8 11 8 10 6 6 8 12 2 7 -4 8 28 -18 19 26 15 10 6 8 5 6
8 7 6 5 10 12 4 1 2 4 3 5 5 5 6 4 9 7 9 8 4 2 6 7 11 11 8 8 12 12 8 13 9 7 6 9 13 3 17 12 8 24 9 21 33 5 6 -0 5
5 6 8 14 13 11 3 1 0 3 3 6 7 6 5 9 4 8 6 11 3 3 3 6 15 10 5 10 15 10 11 11 5 10 -2 8 17 18 7 2 10 29 12 19 12 9 2 -5 15
6 7 6 15 12 7 3 -4 5 7 2 4 6 6 7 2 3 7 4 10 4 3 4 6 17 7 6 10 9 11 12 10 8 9 24 24 11 14 17 17 12 23 12 3 7 -0 -8 40 1
6 6 12 10 11 7 4 2 -0 1 3 5 5 6 8 5 6 6 7 9 7 2 6 5 15 6 2 7 8 8 5 7 11 -5 -0 36 14 10 9 8 26 17 2 0 9 9 12 4 9
3 6 9 10 8 6 9 2 -0 3 9 4 6 4 5 7 4 4 6 8 6 5 7 2 16 8 3 1 6 8 6 5 6 6 8 6 27 13 8 17 16 2 -4 -12 15 -5 2 12 -1
6 12 7 10 8 7 4 8 1 4 5 8 4 4 3 8 8 6 7 6 5 4 4 8 13 11 7 3 3 8 10 6 6 4 9 27 18 2 16 21 12 11 -5 -8 17 9 13 16 -8
9 5 7 9 10 8 5 10 -5 17 4 8 4 2 4 8 9 6 8 5 3 3 3 6 6 12 15 5 3 6 8 5 7 5 4 40 -4 36 25 38 -1 12 1 3 -8 15 12 3 4
6 4 6 7 14 10 6 2 3 9 3 2 5 3 3 1 3 6 7 6 2 3 3 6 4 14 17 9 3 3 5 7 7 17 -1 35 14 31 -8 22 1 13 -11 17 15 8 11 11 4
9 5 5 10 10 11 9 12 9 6 9 6 4 6 5 2 3 3 7 4 4 3 2 6 5 15 14 7 4 -2 4 9 7 25 -1 24 22 30 23 4 -1 2 -17 2 14 5 3 -2 4
-3 9 13 15 10 8 -1 15 14 12 5 4 3 3 3 2 1 3 8 5 3 3 3 6 6 14 12 11 4 4 5 8 8 19 1 43 35 6 6 0 3 10 11 2 -2 12 9 13 12
12 8 9 10 8 8 6 7 9 7 6 5 6 6 6 5 5 6 7 6 4 5 5 5 5 13 10 15 5 7 4 11 14 20 4 58 23 28 17 -4 8 13 17 20 10 1 6 -6 3
9 9 8 9 9 9 6 6 7 13 8 11 10 13 10 8 7 6 8 6 5 5 3 7 5 13 9 12 9 7 5 10 17 14 0 39 25 -8 4 -2 7 -0 16 5 8 -6 -3 -7 -9
9 9 6 8 7 5 10 7 10 11 15 12 8 7 8 8 6 8 3 9 7 3 3 6 5 11 8 10 10 4 8 7 18 14 9 23 33 -9 1 6 -3 -2 -9 -1 -0 -9 11 13 -3
10 11 10 12 10 10 7 6 6 6 11 12 14 9 6 7 10 7 7 8 4 5 5 4 6 11 10 12 7 10 5 12 16 12 8 15 24 11 11 -11 -8 5 -14 -4 12 4 -9 8 -0
10 12 15 13 12 12 11 10 7 8 8 9 18 21 10 6 8 6 6 13 11 5 4 3 6 8 9 14 5 8 9 14 12 19 2 8 12 38 -6 1 -8 20 -7 18 -10 -0 5 8 4
9 10 12 15 15 12 9 14 -0 9 10 7 2 16 18 8 7 9 -1 10 6 2 2 3 5 8 10 13 4 3 10 13 7 11 14 -1 10 24 6 16 5 34 27 18 -3 2 2 14 16
7 9 9 10 13 11 4 13 -7 -0 6 7 10 14 11 10 8 9 6 12 21 6 4 4 4 9 9 12 5 3 11 13 7 6 8 17 18 3 12 18 14 22 8 10 10 18 15 14 1
12 8 6 8 8 9 11 13 10 10 12 15 20 11 10 17 7 9 6 3 27 8 6 4 4 12 7 10 5 1 9 14 12 9 5 7 8 10 13 10 6 5 7 14 11 10 19 26 23
4 8 6 5 12 11 15 17 14 13 14 11 16 20 9 14 14 11 7 19 11 12 5 5 4 12 7 10 4 1 8 9 11 8 10 12 8 7 8 10 28 21 8 2 2 5 -0 3 9
8 6 2 8 8 11 11 16 14 8 17 11 15 23 15 16 24 1 9 11 7 12 7 5 5 12 7 9 3 2 6 7 9 9 9 7 10 11 9 10 6 15 22 22 16 10 0 17 2
13 6 1 6 6 10 9 10 25 20 23 28 20 19 22 25 12 12 16 1 14 9 7 10 4 10 9 8 4 5 3 6 5 6 7 9 8 5 5 8 9 11 8 8 12 17 25 26 15
4 4 0 2 10 8 11 9 8 8 29 2 19 35 17 27 17 8 24 4 9 7 6 6 5 6 9 7 5 6 2 4 4 3 3 5 5 4 8 8 6 4 4 4 4 4 5 6 7
7 4 1 5 11 11 13 17 -5 4 -4 10 22 15 11 21 -0 8 35 1 5 6 2 5 5 5 8 9 7 6 6 3 4 3 2 4 2 3 3 3 8 10 10 8 6 6 5 5 7
Height
5816 5817 5817 5817 5819 5818 5816 5811 5812 5813 5815 5815 5814 5814 5813 5813 5810 5811 5807 5806 5803 5801 5798 5796 5795 5794 5794 5795 5795 5795 5796 5795 5796 5797 5798 5799 5799 5801 5804 5805 5806 5810 5812 5816 5819 5822 5824 5827 5831
5811 5812 5813 5813 5813 5814 5812 5807 5810 5808 5811 5811 5812 5811 5811 5809 5807 5806 5804 5801 5799 5797 5794 5792 5791 5790 5790 5790 5790 5791 5791 5790 5791 5792 5792 5792 5794 5796 5798 5801 5803 5805 5807 5809 5813 5818 5821 5825 5828
5805 5806 5807 5807 5809 5810 5807 5805 5805 5804 5808 5808 5808 5808 5809 5807 5805 5802 5800 5798 5795 5794 5790 5788 5787 5785 5784 5785 5786 5786 5786 5786 5787 5787 5788 5788 5790 5792 5793 5796 5799 5800 5801 5803 5808 5813 5818 5822 5825
5800 5801 5801 5802 5806 5806 5802 5801 5799 5801 5802 5804 5802 5805 5805 5802 5801 5798 5796 5794 5793 5790 5787 5785 5784 5782 5781 5781 5780 5781 5781 5782 5783 5784 5784 5785 5785 5788 5790 5790 5793 5794 5797 5799 5804 5809 5814 5818 5822
5793 5794 5794 5798 5801 5802 5797 5795 5791 5797 5798 5801 5799 5802 5801 5798 5797 5794 5792 5791 5790 5787 5785 5782 5780 5778 5777 5777 5776 5777 5776 5776 5777 5778 5779 5779 5779 5783 5785 5786 5788 5790 5794 5794 5799 5805 5810 5813 5816
5786 5788 5788 5793 5796 5795 5794 5791 5787 5790 5790 5797 5795 5797 5797 5795 5793 5791 5789 5787 5786 5784 5781 5779 5777 5776 5774 5772 5771 5771 5771 5771 5772 5772 5773 5771 5769 5776 5778 5783 5781 5784 5786 5787 5795 5801 5805 5808 5812
5780 5781 5782 5786 5791 5790 5789 5784 5784 5785 5786 5789 5791 5791 5793 5792 5790 5787 5786 5782 5780 5780 5779 5776 5773 5772 5770 5769 5768 5767 5766 5767 5767 5766 5769 5769 5770 5770 5773 5776 5778 5779 5782 5784 5788 5797 5801 5804 5807
5773 5772 5774 5781 5786 5787 5783 5778 5778 5781 5781 5783 5786 5786 5787 5787 5785 5783 5782 5780 5778 5778 5775 5773 5770 5768 5767 5766 5763 5762 5761 5761 5761 5761 5761 5762 5765 5765 5766 5769 5773 5774 5777 5780 5784 5793 5797 5799 5805
5765 5764 5768 5776 5779 5780 5777 5772 5771 5774 5775 5777 5782 5781 5782 5782 5780 5778 5777 5775 5774 5774 5772 5770 5767 5765 5764 5762 5759 5757 5757 5756 5758 5757 5757 5757 5758 5759 5760 5764 5768 5771 5775 5778 5782 5789 5793 5796 5801
5757 5758 5762 5769 5769 5770 5770 5766 5766 5767 5768 5770 5776 5774 5775 5776 5776 5775 5773 5771 5771 5770 5770 5766 5764 5762 5761 5759 5756 5755 5753 5752 5751 5750 5750 5751 5751 5752 5753 5758 5763 5768 5773 5776 5780 5785 5789 5792 5798
5750 5750 5754 5758 5759 5760 5762 5760 5760 5760 5763 5766 5769 5766 5770 5771 5772 5771 5769 5767 5766 5766 5767 5764 5761 5758 5758 5756 5754 5752 5751 5748 5747 5746 5744 5743 5745 5747 5749 5752 5756 5764 5769 5772 5777 5782 5786 5790 5795
5739 5741 5743 5748 5749 5750 5754 5755 5752 5755 5757 5761 5760 5758 5764 5765 5767 5767 5766 5763 5761 5760 5762 5761 5757 5754 5754 5752 5750 5749 5747 5745 5742 5740 5738 5736 5738 5741 5744 5747 5753 5759 5764 5771 5776 5779 5781 5786 5791
5727 5731 5733 5736 5739 5741 5742 5745 5748 5747 5749 5757 5752 5752 5758 5760 5761 5762 5761 5759 5756 5755 5755 5757 5754 5750 5749 5748 5745 5745 5743 5741 5739 5735 5731 5729 5731 5734 5738 5742 5747 5753 5762 5767 5774 5776 5777 5782 5788
5721 5721 5724 5727 5729 5731 5733 5739 5740 5742 5745 5748 5746 5746 5748 5752 5753 5754 5757 5755 5752 5751 5749 5750 5750 5745 5744 5743 5742 5741 5739 5736 5733 5729 5726 5723 5724 5725 5730 5735 5744 5750 5757 5763 5770 5771 5774 5778 5783
5710 5712 5714 5717 5719 5722 5726 5729 5731 5738 5740 5738 5738 5738 5738 5743 5743 5750 5751 5750 5747 5745 5747 5745 5745 5742 5740 5738 5737 5736 5734 5731 5727 5723 5720 5718 5718 5718 5724 5732 5740 5747 5754 5760 5765 5768 5770 5774 5779
5698 5702 5704 5707 5710 5714 5717 5722 5727 5728 5730 5728 5730 5731 5732 5734 5737 5742 5744 5743 5741 5740 5741 5742 5740 5738 5736 5734 5732 5731 5729 5726 5723 5718 5714 5712 5713 5716 5722 5730 5738 5744 5750 5757 5762 5766 5769 5773 5776
5684 5690 5695 5698 5700 5702 5707 5712 5715 5718 5719 5722 5723 5724 5726 5727 5730 5736 5738 5738 5736 5736 5736 5738 5735 5733 5732 5730 5728 5726 5725 5722 5718 5715 5711 5707 5709 5715 5721 5727 5735 5741 5747 5754 5759 5761 5766 5768 5771
5675 5682 5685 5687 5689 5690 5695 5701 5702 5707 5709 5711 5713 5716 5719 5720 5724 5728 5732 5732 5732 5731 5731 5733 5730 5729 5728 5728 5725 5722 5721 5718 5715 5712 5710 5706 5709 5714 5721 5727 5731 5736 5744 5749 5754 5758 5762 5764 5767
5665 5667 5671 5675 5676 5680 5684 5691 5691 5696 5700 5701 5704 5708 5710 5714 5717 5721 5724 5726 5727 5726 5727 5728 5726 5724 5723 5724 5722 5719 5718 5715 5713 5711 5711 5709 5710 5715 5721 5724 5729 5735 5739 5743 5750 5753 5757 5760 5763
5652 5656 5660 5664 5668 5671 5675 5682 5682 5687 5693 5694 5695 5698 5702 5706 5710 5714 5717 5720 5721 5721 5722 5722 5721 5719 5718 5720 5718 5717 5715 5712 5710 5710 5710 5711 5712 5715 5720 5723 5727 5732 5736 5740 5745 5748 5752 5756 5757
5645 5648 5651 5656 5660 5663 5664 5672 5675 5677 5683 5687 5688 5690 5694 5697 5703 5707 5710 5713 5714 5715 5715 5716 5717 5714 5713 5715 5715 5714 5713 5711 5709 5710 5710 5710 5711 5713 5717 5721 5726 5729 5733 5736 5740 5744 5747 5749 5751
5638 5642 5644 5647 5650 5654 5658 5660 5671 5673 5675 5675 5678 5681 5685 5688 5693 5698 5702 5706 5708 5709 5709 5710 5711 5710 5709 5711 5711 5711 5711 5709 5708 5707 5709 5709 5710 5709 5713 5717 5721 5725 5729 5733 5735 5738 5740 5743 5744
5633 5635 5637 5640 5643 5647 5650 5652 5659 5664 5665 5664 5663 5668 5673 5678 5683 5690 5694 5700 5702 5701 5702 5705 5706 5705 5705 5707 5707 5707 5707 5707 5707 5706 5707 5708 5709 5709 5711 5713 5717 5720 5724 5727 5731 5732 5733 5734 5737
5627 5629 5631 5634 5638 5640 5644 5643 5652 5648 5648 5652 5654 5658 5661 5666 5671 5679 5685 5689 5693 5694 5696 5699 5700 5700 5700 5703 5703 5704 5704 5705 5704 5705 5705 5706 5709 5710 5710 5711 5715 5717 5721 5723 5726 5726 5727 5728 5731
5621 5624 5626 5630 5632 5633 5633 5633 5641 5635 5634 5640 5644 5647 5650 5655 5660 5667 5676 5682 5686 5687 5690 5692 5694 5696 5696 5698 5699 5701 5700 5702 5703 5703 5704 5705 5706 5708 5710 5711 5712 5714 5716 5717 5719 5721 5723 5724 5725
5616 5620 5623 5622 5624 5624 5625 5625 5627 5627 5625 5629 5633 5636 5638 5644 5650 5658 5666 5673 5679 5681 5683 5686 5688 5691 5691 5693 5695 5697 5697 5699 5700 5700 5701 5703 5704 5705 5707 5708 5708 5709 5710 5713 5715 5717 5719 5719 5722
5612 5615 5616 5616 5616 5615 5617 5617 5616 5617 5617 5619 5621 5625 5629 5633 5640 5649 5658 5666 5672 5675 5677 5681 5682 5685 5686 5688 5690 5692 5693 5695 5696 5697 5698 5700 5702 5703 5703 5704 5705 5705 5707 5710 5711 5712 5715 5717 5718
5608 5610 5610 5609 5609 5607 5608 5606 5607 5609 5611 5612 5613 5615 5620 5626 5634 5641 5649 5657 5664 5667 5670 5674 5675 5678 5680 5682 5685 5687 5689 5691 5693 5694 5694 5696 5698 5700 5701 5701 5702 5703 5704 5706 5707 5708 5709 5710 5712
5601 5603 5604 5605 5604 5602 5600 5603 5605 5605 5603 5604 5604 5607 5612 5617 5625 5633 5639 5648 5656 5659 5662 5666 5669 5673 5675 5677 5680 5682 5684 5686 5689 5690 5690 5691 5693 5695 5697 5698 5699 5700 5701 5702 5702 5703 5704 5705 5705
5595 5598 5600 5600 5601 5599 5597 5598 5600 5599 5600 5600 5599 5602 5604 5610 5617 5624 5631 5640 5647 5653 5655 5659 5662 5666 5669 5671 5675 5678 5680 5682 5684 5686 5687 5688 5689 5690 5692 5693 5695 5696 5697 5698 5698 5699 5699 5700 5702